Regional Weather Roundup
Issued by NWS

Home | Current Version | Previous Version | Graphics & Text | Print | Product List | Glossary On
Versions: 1 2 3 4 5 6 7 8 9 10 11 12 13 14 15 16 17 18 19 20 21 22 23 24 25 26 27 28 29 30 31 32 33 34 35 36 37 38 39 40 41 42 43 44 45 46 47 48 49 50
000
ASUS45 KTFX 272110
RWRMT
MONTANA REGIONAL WEATHER ROUNDUP
NATIONAL WEATHER SERVICE GREAT FALLS MT
300 PM MDT WED JUL 27 2016

NOTE: "FAIR" INDICATES FEW OR NO CLOUDS BELOW 12000 FEET WITH NO
SIGNIFICANT WEATHER AND/OR OBSTRUCTIONS TO VISIBILITY.

MTZ001>007-043-272200-
WEST OF THE DIVIDE

CITY           SKY/WX    TMP DP  RH WIND       PRES   REMARKS
KALISPELL      MOSUNNY   88  48  25 SE8       30.08F
MISSOULA       SUNNY     91  44  19 NE5       30.08F
BUTTE          MOSUNNY   84  40  21 NE8       30.21S
MULLAN PASS    MOSUNNY   76  46  34 VRB3      30.28S
ANACONDA         N/A     79  45  29 N6        30.18F
DEER LODGE       N/A     82  43  24 NW3       30.19F
EUREKA           N/A     86  50  28 W6        30.08F
HAMILTON         N/A     84  46  26 N7        30.10F
LIBBY            N/A     90  46  22 W5        30.05F
PLAINS           N/A     93  47  20 SE3       30.04
RONAN            N/A     86  48  26 NW3       30.13F
$$

MTZ008-052>055-272200-
SOUTHWEST MONTANA

CITY           SKY/WX    TMP DP  RH WIND       PRES   REMARKS
BOZEMAN        SUNNY     86  42  21 VRB6      30.15F
DILLON         SUNNY     85  51  31 N9        30.15F
W YELLOWSTONE  MOSUNNY   81  32  17 SW15G22   30.28F
ENNIS          SUNNY     86  36  16 VRB7G18   30.22F
THREE FORKS      N/A     85  85 100 N9        30.12F HX 107
TWIN BRIDGES     N/A     85  42  22 S5        30.13F
$$

MTZ009-010-012-014-046-048-049-054-272200-
EAST SLOPES AND CENTRAL MONTANA

CITY           SKY/WX    TMP DP  RH WIND       PRES   REMARKS
CUT BANK       MOSUNNY   80  52  37 N12G17    30.18F
GREAT FALLS    MOSUNNY   84  47  27 NE9       30.16S
MALMSTROM AFB  SUNNY     81  48  31 NE13G21   30.15F
HELENA         CLOUDY    87  47  24 N5        30.12F
CHOTEAU          N/A     81  48  32 N13       30.20S
CONRAD           N/A     82  55  39 N5        30.18F
$$

MTZ011-013-016-021-045-047-050-051-272200-
NORTH CENTRAL MONTANA

CITY           SKY/WX    TMP DP  RH WIND       PRES   REMARKS
HAVRE          CLOUDY    74  59  59 NE9       30.16S
LEWISTOWN      MOSUNNY   78  53  41 MISG      30.19S
N BAR RANCH      N/A     77  54  44 VRB7G15   30.21S
CHINOOK          N/A     66  63  88 SE3       30.16
$$

MTZ017>020-022>027-061-062-272200-
NORTHEAST MONTANA

CITY           SKY/WX    TMP DP  RH WIND       PRES   REMARKS
GLASGOW        CLOUDY    75  60  59 SE8       30.12F
JORDAN           N/A     76  62  62 E6        30.12F
SIDNEY         CLOUDY    70  61  73 N6        30.15S
WOLF POINT     CLOUDY    74  61  63 E10       30.14F
PLENTYWOOD       N/A     72  52  49 CALM      30.16F
SCOBEY           N/A     70  52  52 E8        30.15F
$$

MTZ028>42-056>058-272200-
SOUTHCENTRAL AND SOUTHEAST MONTANA

CITY           SKY/WX    TMP DP  RH WIND       PRES   REMARKS
BAKER          PTSUNNY   74  61  63 E7        30.15S
BILLINGS       MOSUNNY   85  51  31 NE8G18    30.11F
LIVINGSTON     CLOUDY    86  39  19 S5        30.14S
MILES CITY     MOSUNNY   81  59  47 NE6       30.09F
EKALAKA          N/A     78  56  46 E2        30.12S
FORSYTH          N/A     84  57  39 NE9       30.09S
LAUREL           N/A     86  51  29 NE7       30.10F
ROUNDUP          N/A     68  65  90 CALM      30.05F
$$

REGIONAL REPORTS...DAKOTAS

CITY           SKY/WX    TMP DP  RH WIND       PRES   REMARKS
WILLISTON      CLOUDY    69  60  73 N8        30.15R
MINOT          MOSUNNY   78  58  49 VRB6      30.12F
DICKINSON      CLOUDY    72  59  63 E6        30.12S
CROSBY         PTSUNNY   72  61  68 E8        30.17S
WATFORD CITY     N/A    N/A N/A N/A MISG        N/A
BISMARCK       CLOUDY    76  61  59 VRB5      30.11S
GRAND FORKS    MOSUNNY   77  59  53 N14       30.05F
FARGO          SUNNY     78  59  51 N21       30.03F
BUFFALO SD       N/A     68  61  78 E13       30.08S
RAPID CITY     MOSUNNY   82  60  47 N16       30.14R
$$

REGIONAL REPORTS...WYOMING/IDAHO/WASHINGTON

CITY           SKY/WX    TMP DP  RH WIND       PRES   REMARKS
GILLETTE       SUNNY     85  53  33 VRB7      30.14F
SHERIDAN       MOSUNNY   89  53  29 VRB3      30.12F
BUFFALO WY     SUNNY     85  48  27 N13G20    30.19S
CODY           SUNNY     82  46  28 NE5       30.18F
YELLOWSTONE LA   N/A     74  30  19 VRB6      30.39S
IDAHO FALLS    SUNNY     90  36  14 VRB6      30.15F
SALMON         SUNNY     88  46  23 N3        30.04F
BOISE          SUNNY     96  44  16 VRB5      29.99F HX  92
SPOKANE        MOSUNNY   89  48  24 NW6       30.06F
$$

REGIONAL REPORTS...ALBERTA

CITY           SKY/WX    TMP DP  RH WIND       PRES   REMARKS
EDMONTON       PTSUNNY   70  57  64 SW9       30.15R
CALGARY        MOSUNNY   77  54  44 VRB6      30.19F
LETHBRIDGE     MOSUNNY   77  57  50 CALM      30.16F
MEDICINE HAT   PTSUNNY   82  54  36 VRB3      30.14F
WATERTON GATE    N/A     70  55  60 NW2         N/A
MILK RIVER       N/A     79  54  41 N3          N/A
ONEFOUR          N/A     77  50  38 NE5         N/A
$$

REGIONAL REPORTS...SASKATCHEWAN

CITY           SKY/WX    TMP DP  RH WIND       PRES   REMARKS
SWIFT CURRENT  PTSUNNY   75  54  46 NE12      30.17F
REGINA         PTSUNNY   75  55  50 S8        30.16S
SASKATOON      MOSUNNY   79  50  36 W6        30.18S
CYPRESS HILLS    N/A     68  54  60 NE5         N/A
VAL MARIE        N/A     72  59  64 NE8         N/A
ROCKGLEN         N/A     70  55  60 E9          N/A
ASSINIBOIA       N/A     77  64  65 SW10        N/A
$$



USA.gov is the U.S. government's official web portal to all federal, state and local government web resources and services.